Погода Софийский Прииск

Погода Софийский Прииск : погода сейчас, прогноз погоды и архив. Всё, что Вы хотите узнать о погоде Софийский Прииск!

Поиск расширенной информации на нашем сайте:

Другие новости

Новости СМИ2

Главная страница сайта

Новости сайта

03.07.2017

Напоминаем, что на нашем специализированном сайте Метеоцентр.Азия вы можете получить высокодетализированные автоматические прогнозы погоды по пунктам России, СНГ и мира в авиационном формате (включающие направление и скорость ветра, видимость, явления погоды, количество и форму облачности, нижнюю и верхнюю границу облачности).


Погода Софийский Прииск - сегодня

Время (UTC), дата Ветер
(°,м/с) 
Видим.   Явления Облачность Т
(°С)
Тd
(°С)
f(%) Тe
(°С)
Pmin
(гПа)
dP
(гПа)
Po
(мм)
O2
(г/м3)
Тmin Tmax R s Состояние
почвы
15 15.04.18 тихо ()   20000 м    ясно 
-10.9 -13.1 84 -11  1012.4  676  285           
18 15.04.18 100 (В) 20000 м    ясно 
-13.5 -16.4 79 -13  1013.3  -0.3  676  288           
00 16.04.18 260 (З) 20000 м    ясно 
-1.9 -13.3 41 -3  1007.9  -0.2  676  275           
03 16.04.18 240 (ЮЗ) 20000 м    ясно 
+4.4 -12.3 28 +3  1004.2  -1.2             
06 16.04.18 280 (З) 20000 м    6/0 верхняя 
[Ci fib]
+6.1 -13.2 24 +5  1003  -0.5             
12 16.04.18 110 (В) 20000 м    4/0 верхняя 
[Ci fib]
-2.7 -8.4 65 -2  1008.4  1.4  676  276           
15 16.04.18 080 (В) 20000 м    1/0 верхняя 
[Ci fib]
-4.4 -9.9 65 -6  1009.1  676  277           
18 16.04.18 100 (В) 20000 м    ясно 
-7.1 -11 74 -9  1010.4  0.2  676  280           
00 17.04.18 тихо ()   20000 м    10/0 средняя, верхняя 
[As trans|Cs]
+6.1 -9.9 31 +6  1004.7  -0.6  676  267           
03 17.04.18 230 (ЮЗ) 20000 м    10/1 1000 м средняя, верхняя 
[Sc|As trans|Cs]
+8.2 -8.4 30 +7  1003.1  -0.8  675  265           
06 17.04.18 240 (ЮЗ) 20000 м    9/0 средняя, верхняя 
[Ac lent|Cc]
+9.8 -7.4 29 +10  1000.9  -1.4             
12 17.04.18 120 (ЮВ) 20000 м    10/10 1000 м кучево-дожд. 
[Cb cap]
+3 -3.2 64 +4  1004.2  1.2             
15 17.04.18 150 (ЮВ) 20000 м    10/10 1000 м кучево-дожд. 
[Cb cap]
+1.4 -2.7 74 +2  1005.4  0.5             
18 17.04.18 тихо ()   20000 м    8/4 1000 м кучево-дожд., верхняя 
[Cb cap|Ci fib]
-0.5 -2.9 84 -1  1006  -0.2             
21 17.04.18 060 (СВ) 20000 м    9/3 1000 м средняя, верхняя 
[Sc|Ac cast|Ci sp]
-1.6 -3.6 86 -1  1007.5  0.9  675  274  -2.3      16  мокрый или
старый снег
50-90% 
00 18.04.18 320 (СЗ) 20000 м  дым  4/0 верхняя 
[Ci sp]
+5.4 -9.9 32 +6  1005.4  0.6  676  268           
03 18.04.18 260 (З) 20000 м  дым  ясно 
+7.1 -9.9 29 +6  1004.8  0.1  676  266           
06 18.04.18 340 (С) 20000 м    ясно 
+7.9 -11.8 23 +7  1004.4  -0.1  676  266           
12 18.04.18 тихо ()   20000 м    ясно 
-2.2 -7.1 69 -2  1010.1  1.2  677  276           
15 18.04.18 100 (В) 20000 м    ясно 
-4.6 -8.6 74 -6  1012.1  0.8  678  278           
18 18.04.18 080 (В) 20000 м    ясно 
-6 -9.8 74 -7  1012.9  0.2  678  280           
21 18.04.18 080 (В) 20000 м    10/0 верхняя 
[Cc]
-5.7 -9 78 -5  1012.7  -0.1  678  280  -8.9      мокрый или
старый снег
50-90% 
00 19.04.18 260 (З) 20000 м    10/0 верхняя 
[Cs]
+3 -6.4 50 +2  1009.3  0.3  678  271           
03 19.04.18 280 (З) 20000 м    10/0 верхняя 
[Cs]
+7.9 -11.6 24 +9  1006.2  -1.1  677  266           
06 19.04.18 240 (ЮЗ) 20000 м    6/0 верхняя 
[Cc]
+9.5 -12.4 20 +9  1003.8  -1.6  676  264           
Время (UTC), дата Ветер
(°,м/с) 
Видим.   Явления Облачность Т
(°С)
Тd
(°С)
f(%) Тe
(°С)
Pmin
(гПа)
dP
(гПа)
Po
(мм)
O2
(г/м3)
Тmin Tmax R s Состояние
почвы

Для получения пояснительной информации подведите курсор к названию столбца.

ПОГОДА Софийский Прииск - архив

Всё, что Вы хотите узнать о погоде Софийский Прииск - удобно и подробно!

Выберите нужную дату (начиная с 1 января 2015* года) и нажмите кнопку "Найти".
Будут отображены архивные сводки погоды по пункту Софийский Прииск, начиная с указанной даты.


Отображать данные в формате CSV (для использования в таблицах Excel)


Внимание! Наш архив погоды предназначен исключительно для личного некоммерческого использования в познавательных целях. Если Вам необходимы официальные справки о состоянии погоды (для производственных, юридических, коммерческих и т.п. целей), обращайтесь в органы Росгидромета.

*Примечание: данная дата относится к архиву по метеостанциям СССР (Россия, СНГ, Балтия).
Архив по метеостанциям Зарубежной Европы и Азии (кроме Китая) хранится 10 дней, по другим регионам земного шара (Китай, Африка, Америка, Австралия, Океания) - 1 день.

Софийский Прииск - район местоположения метеостанции


Название, широта, долгота, высота метеостанции:
Софийский Прииск 52.3°ш. 134°д. 902 м над ур. моря [Российская Федерация]

Дополнительная информация

В oтличие oт бoльшинства пoгoдных сайтoв мы публикуем пoдрoбную метеoинфoрмацию в детальнoм прoфессиoнальнoм фoрмате.

Характеристики температуры и влажнoсти вoздуха измеряются на высoте 2 м в тени вдали oт зданий и деревьев.
Скoрoсть ветра измеряется на высoте 10 м (на урoвне рoста челoвека скoрoсть ветра ниже в 1.5-2 раза). Если метеoстанция нахoдится в гoрoде или в лесу, тo скoрoсть ветра занижена на 2-4 м/с пo сравнению с oткрытым местoм. Скoрoсть ветра над акватoриями крупных рек и oзёр, а также на вершинах хoлмoв на 2-5 м/с выше, чем в oбычных услoвиях.
Атмoсфернoе давление в разных тoчках местнoсти мoжет значительнo oтличаться oт давления на метеoстанции, в зависимoсти oт услoвий рельефа (при пoдъёме на 10 м давление пoнижается примернo на 1 мм рт.ст.).